Time,TemperatureF,DewpointF,PressureIn,WindDirection,WindDirectionDegrees,WindSpeedMPH,WindSpeedGustMPH,Humidity,HourlyPrecipIn,Conditions,Clouds,dailyrainin,SoftwareType,DateUTC
2013-09-19 00:06:00,78.9,70.0,29.65,South,174,0.0,0.0,74,0.00,,,0.49,weatherlink.com 1.10,2013-09-19 05:06:00,
2013-09-19 00:21:00,78.4,70.0,29.64,SSW,194,0.0,0.0,75,0.00,,,0.49,weatherlink.com 1.10,2013-09-19 05:21:00,
2013-09-19 00:36:00,77.8,70.0,29.65,SSW,213,0.0,0.0,76,0.00,,,0.49,weatherlink.com 1.10,2013-09-19 05:36:00,
2013-09-19 00:51:00,77.7,70.0,29.65,SSW,198,0.0,0.0,77,0.00,,,0.49,weatherlink.com 1.10,2013-09-19 05:51:00,
2013-09-19 01:06:00,77.5,70.0,29.65,SSE,152,0.0,0.0,77,0.00,,,0.49,weatherlink.com 1.10,2013-09-19 06:06:00,
2013-09-19 01:21:00,77.2,70.0,29.64,SW,221,0.0,0.0,78,0.00,,,0.49,weatherlink.com 1.10,2013-09-19 06:21:00,
2013-09-19 01:36:00,77.1,70.0,29.64,SSE,157,0.0,0.0,78,0.00,,,0.49,weatherlink.com 1.10,2013-09-19 06:36:00,
2013-09-19 01:51:00,76.8,69.0,29.64,South,190,0.0,0.0,78,0.00,,,0.49,weatherlink.com 1.10,2013-09-19 06:51:00,
2013-09-19 02:06:00,76.4,69.0,29.64,South,186,0.0,0.0,79,0.00,,,0.49,weatherlink.com 1.10,2013-09-19 07:06:00,
2013-09-19 02:21:00,76.0,69.0,29.64,SSE,157,0.0,0.0,80,0.00,,,0.49,weatherlink.com 1.10,2013-09-19 07:21:00,
2013-09-19 02:36:00,75.7,69.0,29.64,South,172,0.0,0.0,80,0.00,,,0.00,weatherlink.com 1.10,2013-09-19 07:36:00,
2013-09-19 02:51:00,75.4,69.0,29.64,SSW,196,0.0,0.0,81,0.00,,,0.00,weatherlink.com 1.10,2013-09-19 07:51:00,
2013-09-19 03:06:00,75.2,69.0,29.64,SSW,200,0.0,0.0,81,0.00,,,0.00,weatherlink.com 1.10,2013-09-19 08:06:00,
2013-09-19 03:21:00,75.2,69.0,29.63,SSW,196,0.0,0.0,81,0.00,,,0.00,weatherlink.com 1.10,2013-09-19 08:21:00,
2013-09-19 03:36:00,75.2,69.0,29.63,South,187,0.0,0.0,80,0.00,,,0.00,weatherlink.com 1.10,2013-09-19 08:36:00,
2013-09-19 03:51:00,75.0,68.0,29.62,SSW,207,0.0,0.0,80,0.00,,,0.00,weatherlink.com 1.10,2013-09-19 08:51:00,
2013-09-19 04:06:00,74.7,68.0,29.62,SSW,213,0.0,0.0,80,0.00,,,0.00,weatherlink.com 1.10,2013-09-19 09:06:00,
2013-09-19 04:21:00,74.4,68.0,29.61,SSE,159,0.0,0.0,81,0.00,,,0.00,weatherlink.com 1.10,2013-09-19 09:21:00,
2013-09-19 04:36:00,74.1,68.0,29.61,SSW,199,0.0,0.0,81,0.00,,,0.00,weatherlink.com 1.10,2013-09-19 09:36:00,
2013-09-19 04:51:00,74.0,68.0,29.61,SSW,199,0.0,0.0,81,0.00,,,0.00,weatherlink.com 1.10,2013-09-19 09:51:00,
2013-09-19 05:06:00,73.7,68.0,29.60,SSW,198,0.0,0.0,82,0.00,,,0.00,weatherlink.com 1.10,2013-09-19 10:06:00,
2013-09-19 05:21:00,73.4,68.0,29.59,SW,226,0.0,0.0,82,0.00,,,0.00,weatherlink.com 1.10,2013-09-19 10:21:00,
2013-09-19 05:36:00,73.3,68.0,29.60,SSW,195,0.0,0.0,82,0.00,,,0.00,weatherlink.com 1.10,2013-09-19 10:36:00,
2013-09-19 05:51:00,73.2,67.0,29.60,South,181,0.0,0.0,82,0.00,,,0.00,weatherlink.com 1.10,2013-09-19 10:51:00,
2013-09-19 06:06:00,73.0,67.0,29.60,SSW,196,0.0,0.0,82,0.00,,,0.00,weatherlink.com 1.10,2013-09-19 11:06:00,
2013-09-19 06:21:00,72.7,67.0,29.61,South,173,0.0,0.0,82,0.00,,,0.00,weatherlink.com 1.10,2013-09-19 11:21:00,
2013-09-19 06:36:00,72.5,67.0,29.62,SSW,193,0.0,0.0,82,0.00,,,0.00,weatherlink.com 1.10,2013-09-19 11:36:00,
2013-09-19 06:51:00,72.5,67.0,29.63,SSW,205,0.0,0.0,82,0.00,,,0.00,weatherlink.com 1.10,2013-09-19 11:51:00,
2013-09-19 07:06:00,72.4,67.0,29.63,SSW,199,0.0,0.0,82,0.00,,,0.00,weatherlink.com 1.10,2013-09-19 12:06:00,
2013-09-19 07:21:00,72.3,67.0,29.62,SSW,198,0.0,0.0,82,0.00,,,0.00,weatherlink.com 1.10,2013-09-19 12:21:00,
2013-09-19 07:36:00,72.6,67.0,29.62,SSW,205,0.0,0.0,81,0.00,,,0.00,weatherlink.com 1.10,2013-09-19 12:36:00,
2013-09-19 07:51:00,73.2,67.0,29.61,South,190,0.0,0.0,80,0.00,,,0.00,weatherlink.com 1.10,2013-09-19 12:51:00,
2013-09-19 08:06:00,73.5,67.0,29.61,SSW,193,0.0,0.0,79,0.00,,,0.00,weatherlink.com 1.10,2013-09-19 13:06:00,
2013-09-19 08:21:00,73.1,67.0,29.61,South,169,0.0,0.0,80,0.00,,,0.00,weatherlink.com 1.10,2013-09-19 13:21:00,
2013-09-19 08:36:00,72.9,67.0,29.61,SSW,196,0.0,0.0,81,0.00,,,0.00,weatherlink.com 1.10,2013-09-19 13:36:00,
2013-09-19 08:51:00,73.0,67.0,29.61,SSW,199,0.0,0.0,81,0.00,,,0.00,weatherlink.com 1.10,2013-09-19 13:51:00,
2013-09-19 09:06:00,73.6,67.0,29.63,SSW,196,0.0,0.0,80,0.00,,,0.00,weatherlink.com 1.10,2013-09-19 14:06:00,
2013-09-19 09:21:00,74.6,68.0,29.62,SSW,205,0.0,0.0,79,0.00,,,0.00,weatherlink.com 1.10,2013-09-19 14:21:00,
2013-09-19 09:36:00,75.2,68.0,29.62,SSW,199,0.0,0.0,77,0.00,,,0.00,weatherlink.com 1.10,2013-09-19 14:36:00,
2013-09-19 09:51:00,76.5,68.0,29.64,SW,231,0.0,0.0,74,0.00,,,0.00,weatherlink.com 1.10,2013-09-19 14:51:00,
2013-09-19 10:07:00,77.7,68.0,29.66,WSW,241,0.0,0.0,71,0.00,,,0.00,weatherlink.com 1.10,2013-09-19 15:07:00,
2013-09-19 10:22:00,77.6,68.0,29.67,WNW,300,0.0,0.0,72,0.00,,,0.00,weatherlink.com 1.10,2013-09-19 15:22:00,
2013-09-19 10:37:00,77.8,69.0,29.68,West,281,0.0,0.0,73,0.00,,,0.00,weatherlink.com 1.10,2013-09-19 15:37:00,
2013-09-19 10:52:00,79.4,68.0,29.67,West,270,0.0,0.0,69,0.00,,,0.00,weatherlink.com 1.10,2013-09-19 15:52:00,
2013-09-19 11:07:00,79.9,68.0,29.67,WSW,254,0.0,0.0,66,0.00,,,0.00,weatherlink.com 1.10,2013-09-19 16:07:00,
2013-09-19 11:22:00,80.9,66.0,29.66,West,270,0.0,0.0,61,0.00,,,0.00,weatherlink.com 1.10,2013-09-19 16:22:00,
2013-09-19 11:37:00,81.0,66.0,29.67,WNW,287,0.0,0.0,61,0.00,,,0.00,weatherlink.com 1.10,2013-09-19 16:37:00,
2013-09-19 11:52:00,81.4,66.0,29.68,SW,216,0.0,0.0,60,0.00,,,0.00,weatherlink.com 1.10,2013-09-19 16:52:00,
2013-09-19 12:07:00,80.0,66.0,29.69,SSW,211,0.0,0.0,62,0.00,,,0.00,weatherlink.com 1.10,2013-09-19 17:07:00,
2013-09-19 12:22:00,78.2,66.0,29.70,WNW,286,0.0,0.0,66,0.00,,,0.00,weatherlink.com 1.10,2013-09-19 17:22:00,
2013-09-19 12:37:00,76.8,65.0,29.71,WSW,246,0.0,0.0,68,0.00,,,0.00,weatherlink.com 1.10,2013-09-19 17:37:00,
2013-09-19 12:52:00,75.8,67.0,29.71,WSW,244,0.0,0.0,73,0.00,,,0.00,weatherlink.com 1.10,2013-09-19 17:52:00,
2013-09-19 13:07:00,73.6,67.0,29.72,SSW,206,0.0,0.0,81,0.01,,,0.01,weatherlink.com 1.10,2013-09-19 18:07:00,
2013-09-19 13:22:00,73.4,68.0,29.73,WSW,240,0.0,0.0,82,0.01,,,0.01,weatherlink.com 1.10,2013-09-19 18:22:00,
2013-09-19 13:37:00,73.8,68.0,29.72,SSW,209,0.0,0.0,81,0.01,,,0.01,weatherlink.com 1.10,2013-09-19 18:37:00,
2013-09-19 14:07:00,73.5,68.0,29.65,North,5,0.0,0.0,84,0.00,,,0.01,weatherlink.com 1.10,2013-09-19 19:07:00,
2013-09-19 14:22:00,73.6,68.0,29.68,WNW,286,0.0,0.0,83,0.00,,,0.01,weatherlink.com 1.10,2013-09-19 19:22:00,
2013-09-19 14:37:00,74.6,68.0,29.67,West,259,0.0,0.0,80,0.00,,,0.01,weatherlink.com 1.10,2013-09-19 19:37:00,
2013-09-19 14:52:00,75.3,67.0,29.67,WNW,296,0.0,0.0,75,0.00,,,0.01,weatherlink.com 1.10,2013-09-19 19:52:00,
2013-09-19 15:07:00,75.3,66.0,29.67,NNW,327,0.0,0.0,72,0.00,,,0.01,weatherlink.com 1.10,2013-09-19 20:07:00,
2013-09-19 15:22:00,75.4,66.0,29.67,WNW,300,0.0,0.0,72,0.00,,,0.01,weatherlink.com 1.10,2013-09-19 20:22:00,
2013-09-19 15:37:00,75.3,66.0,29.69,WSW,238,0.0,0.0,72,0.00,,,0.01,weatherlink.com 1.10,2013-09-19 20:37:00,
2013-09-19 15:52:00,75.0,65.0,29.70,NNW,327,0.0,0.0,72,0.00,,,0.01,weatherlink.com 1.10,2013-09-19 20:52:00,
2013-09-19 16:07:00,75.0,65.0,29.70,NW,319,0.0,0.0,72,0.00,,,0.01,weatherlink.com 1.10,2013-09-19 21:07:00,
2013-09-19 16:22:00,74.6,65.0,29.70,NW,325,0.0,0.0,73,0.00,,,0.01,weatherlink.com 1.10,2013-09-19 21:22:00,
2013-09-19 16:37:00,74.2,65.0,29.69,WNW,302,0.0,0.0,73,0.00,,,0.01,weatherlink.com 1.10,2013-09-19 21:37:00,
2013-09-19 16:52:00,73.9,65.0,29.69,NW,309,0.0,0.0,74,0.00,,,0.01,weatherlink.com 1.10,2013-09-19 21:52:00,
2013-09-19 17:22:00,73.5,66.0,29.71,NW,317,0.0,0.0,76,0.00,,,0.01,weatherlink.com 1.10,2013-09-19 22:22:00,
2013-09-19 17:37:00,72.9,66.0,29.72,WNW,296,0.0,0.0,79,0.01,,,0.02,weatherlink.com 1.10,2013-09-19 22:37:00,
2013-09-19 17:52:00,72.1,66.0,29.72,WNW,296,0.0,0.0,82,0.01,,,0.02,weatherlink.com 1.10,2013-09-19 22:52:00,
2013-09-19 18:07:00,71.7,66.0,29.72,NW,317,0.0,0.0,82,0.01,,,0.02,weatherlink.com 1.10,2013-09-19 23:07:00,
2013-09-19 18:22:00,71.2,66.0,29.72,NW,323,0.0,0.0,83,0.01,,,0.02,weatherlink.com 1.10,2013-09-19 23:22:00,
2013-09-19 18:37:00,70.8,66.0,29.71,NNW,337,0.0,0.0,84,0.00,,,0.02,weatherlink.com 1.10,2013-09-19 23:37:00,
2013-09-19 18:52:00,70.2,66.0,29.69,NNW,345,0.0,0.0,86,0.01,,,0.03,weatherlink.com 1.10,2013-09-19 23:52:00,
2013-09-19 19:07:00,69.9,66.0,29.72,WNW,303,0.0,0.0,87,0.01,,,0.03,weatherlink.com 1.10,2013-09-20 00:07:00,
2013-09-19 19:22:00,69.9,66.0,29.72,NW,314,0.0,0.0,86,0.01,,,0.03,weatherlink.com 1.10,2013-09-20 00:22:00,
2013-09-19 19:37:00,69.7,65.0,29.72,NW,306,0.0,0.0,85,0.01,,,0.03,weatherlink.com 1.10,2013-09-20 00:37:00,
2013-09-19 19:52:00,69.2,65.0,29.73,WNW,298,0.0,0.0,85,0.00,,,0.03,weatherlink.com 1.10,2013-09-20 00:52:00,
2013-09-19 20:07:00,68.6,64.0,29.72,NW,317,0.0,0.0,86,0.00,,,0.03,weatherlink.com 1.10,2013-09-20 01:07:00,
2013-09-19 20:22:00,68.1,64.0,29.73,NNW,327,0.0,0.0,86,0.00,,,0.03,weatherlink.com 1.10,2013-09-20 01:22:00,
2013-09-19 20:37:00,68.0,62.0,29.74,NW,316,0.0,0.0,82,0.00,,,0.03,weatherlink.com 1.10,2013-09-20 01:37:00,
2013-09-19 20:52:00,67.7,61.0,29.74,NW,311,0.0,0.0,78,0.00,,,0.03,weatherlink.com 1.10,2013-09-20 01:52:00,
2013-09-19 21:07:00,67.7,58.0,29.76,NW,313,0.0,0.0,72,0.00,,,0.03,weatherlink.com 1.10,2013-09-20 02:07:00,
2013-09-19 21:23:00,67.2,58.0,29.76,NW,326,0.0,0.0,73,0.00,,,0.03,weatherlink.com 1.10,2013-09-20 02:23:00,
2013-09-19 21:38:00,66.3,58.0,29.76,NW,313,0.0,0.0,75,0.00,,,0.03,weatherlink.com 1.10,2013-09-20 02:38:00,
2013-09-19 21:53:00,66.0,57.0,29.77,WNW,300,0.0,0.0,72,0.00,,,0.03,weatherlink.com 1.10,2013-09-20 02:53:00,
2013-09-19 22:08:00,65.8,56.0,29.79,WNW,295,0.0,0.0,70,0.00,,,0.03,weatherlink.com 1.10,2013-09-20 03:08:00,
2013-09-19 22:23:00,65.5,55.0,29.80,NW,311,0.0,0.0,69,0.00,,,0.03,weatherlink.com 1.10,2013-09-20 03:23:00,
2013-09-19 22:38:00,65.3,54.0,29.80,NW,317,0.0,0.0,66,0.00,,,0.03,weatherlink.com 1.10,2013-09-20 03:38:00,
2013-09-19 22:53:00,64.9,53.0,29.80,NW,306,0.0,0.0,66,0.00,,,0.03,weatherlink.com 1.10,2013-09-20 03:53:00,
2013-09-19 23:08:00,64.4,54.0,29.81,West,278,0.0,0.0,68,0.00,,,0.03,weatherlink.com 1.10,2013-09-20 04:08:00,
2013-09-19 23:23:00,63.6,54.0,29.81,WNW,299,0.0,0.0,71,0.00,,,0.03,weatherlink.com 1.10,2013-09-20 04:23:00,
2013-09-19 23:38:00,63.0,54.0,29.80,WNW,289,0.0,0.0,72,0.00,,,0.03,weatherlink.com 1.10,2013-09-20 04:38:00,
2013-09-19 23:53:00,62.5,54.0,29.81,WNW,291,0.0,0.0,73,0.00,,,0.03,weatherlink.com 1.10,2013-09-20 04:53:00,